User: anonymous   Login
Location: Mount Kobau Star Party
(49.1167°N, 119.7333°W)
Time: 13:04:53
(UTC-07:00)
Language:

TSX-5 - Orbit

View from above orbital plane
View from above orbital plane
View from above satellite
View from above satellite

Ground track
Ground track

The orbit data is extracted from the following two-line orbital elements,

1 26374U 00030A   15089.49169002  .00009568  00000-0  85416-3 0  9994
2 26374 068.9335 212.4542 0673326 111.0631 322.0560 13.98325790742578
Epoch (UTC): 30 March 2015 11:48:02
Eccentricity: 0.0673326
inclination: 68.9335°
perigee height: 409 km
apogee height: 1389 km
right ascension of ascending node: 212.4542°
argument of perigee: 111.0631°
revolutions per day: 13.98325790
mean anomaly at epoch: 322.0560°
orbit number at epoch: 74257

The dashed part of the orbit path shows where the satellite is in the earth's shadow,  

DLR